DLH5AC LOWI-EDDF

Flight info

Callsign DLH5AC
Flight time 0h 47m
Altitude 28000
Route MOGTI Q163 HAFUN/N0402F240 Q163 ETASA T163 SPESA SPESA4C
Aircraft A21N/M-SDE2E3FGHIRWXY/LB1

Departure

Time 2026-05-01 13:26
Airport Innsbruck Airport (LOWI)

Arrival

Time 2026-05-01 14:14
Airport Frankfurt Main Airport (EDDF)
Time Latitude Longitude Altitude Speed Heading
2026-05-01 12:50 47.25822 11.35050 1914 ft 0 kts 171°
2026-05-01 13:14 47.25823 11.35050 1914 ft 2 kts 171°
2026-05-01 13:14 47.25847 11.35043 1902 ft 4 kts 153°
2026-05-01 13:14 47.25868 11.35022 1901 ft 4 kts 114°
2026-05-01 13:15 47.25873 11.35000 1902 ft 0 kts 81°
2026-05-01 13:19 47.25874 11.35011 1902 ft 3 kts 81°
2026-05-01 13:20 47.25880 11.35059 1900 ft 6 kts 80°
2026-05-01 13:20 47.25882 11.35080 1906 ft 2 kts 81°
2026-05-01 13:20 47.25886 11.35121 1909 ft 6 kts 81°
2026-05-01 13:21 47.25914 11.35283 1902 ft 6 kts 42°
2026-05-01 13:21 47.25957 11.35283 1906 ft 5 kts 348°
2026-05-01 13:21 47.25958 11.35283 1906 ft 0 kts 348°
2026-05-01 13:23 47.25961 11.35282 1914 ft 2 kts 348°
2026-05-01 13:23 47.25990 11.35274 1910 ft 6 kts 349°
2026-05-01 13:23 47.26048 11.35260 1911 ft 11 kts 351°
2026-05-01 13:24 47.26113 11.35279 1908 ft 10 kts 50°
2026-05-01 13:24 47.26130 11.35392 1913 ft 13 kts 81°
2026-05-01 13:24 47.26143 11.35522 1909 ft 11 kts 82°
2026-05-01 13:25 47.26126 11.35726 1897 ft 7 kts 39°
2026-05-01 13:25 47.26154 11.35720 1906 ft 4 kts 339°
2026-05-01 13:25 47.26161 11.35675 1913 ft 0 kts 261°
2026-05-01 13:26 47.26123 11.35352 1902 ft 80 kts 260°
2026-05-01 13:26 47.25989 11.34113 1909 ft 160 kts 261°
2026-05-01 13:26 47.25803 11.32277 2373 ft 188 kts 262°
2026-05-01 13:26 47.25646 11.30349 3482 ft 190 kts 265°
2026-05-01 13:27 47.25628 11.28420 4676 ft 187 kts 278°
2026-05-01 13:27 47.25904 11.26574 5740 ft 186 kts 285°
2026-05-01 13:27 47.26688 11.22683 7136 ft 215 kts 289°
2026-05-01 13:28 47.27825 11.18068 8097 ft 266 kts 293°
2026-05-01 13:28 47.28573 11.15432 8710 ft 288 kts 294°
2026-05-01 13:29 47.30097 11.10041 10459 ft 310 kts 288°
2026-05-01 13:29 47.30407 11.03462 11393 ft 353 kts 266°
2026-05-01 13:30 47.29855 10.90154 14482 ft 371 kts 268°
2026-05-01 13:31 47.30400 10.84037 15763 ft 373 kts 296°
2026-05-01 13:31 47.35643 10.75730 18070 ft 375 kts 323°
2026-05-01 13:32 47.39931 10.71296 19369 ft 378 kts 335°
2026-05-01 13:33 47.47264 10.66848 21346 ft 385 kts 341°
2026-05-01 13:33 47.52294 10.63902 22672 ft 391 kts 341°
2026-05-01 13:34 47.57395 10.60908 23939 ft 398 kts 340°
2026-05-01 13:34 47.62569 10.57865 24999 ft 403 kts 340°
2026-05-01 13:35 47.67819 10.54776 25979 ft 409 kts 340°
2026-05-01 13:35 47.70471 10.53213 26446 ft 412 kts 340°
2026-05-01 13:35 47.75649 10.50157 27340 ft 417 kts 340°
2026-05-01 13:36 47.78353 10.48560 27790 ft 420 kts 340°
2026-05-01 13:36 47.81078 10.46947 28212 ft 423 kts 340°
2026-05-01 13:36 47.86579 10.43689 28316 ft 433 kts 340°
2026-05-01 13:37 47.89379 10.42029 28317 ft 444 kts 340°
2026-05-01 13:37 47.92281 10.40305 28320 ft 455 kts 340°
2026-05-01 13:37 47.98283 10.36729 28316 ft 471 kts 340°
2026-05-01 13:38 48.07437 10.31252 28318 ft 473 kts 340°
2026-05-01 13:39 48.13549 10.27587 28318 ft 473 kts 340°
2026-05-01 13:39 48.19568 10.23569 28311 ft 475 kts 333°
2026-05-01 13:40 48.25092 10.18084 28315 ft 478 kts 323°
2026-05-01 13:40 48.30258 10.11798 28317 ft 478 kts 323°
2026-05-01 13:41 48.35432 10.05507 28319 ft 478 kts 323°
2026-05-01 13:41 48.40606 9.99203 28317 ft 478 kts 323°
2026-05-01 13:42 48.45776 9.92886 28313 ft 479 kts 322°
2026-05-01 13:42 48.50943 9.86556 28310 ft 478 kts 322°
2026-05-01 13:43 48.56109 9.80214 28308 ft 479 kts 322°
2026-05-01 13:43 48.61199 9.73939 28301 ft 478 kts 322°
2026-05-01 13:44 48.66247 9.67329 28303 ft 480 kts 320°
2026-05-01 13:44 48.71256 9.60659 28295 ft 480 kts 320°
2026-05-01 13:45 48.76283 9.53994 28299 ft 480 kts 320°
2026-05-01 13:45 48.81315 9.47322 28293 ft 481 kts 320°
2026-05-01 13:46 48.86353 9.40632 28297 ft 481 kts 320°
2026-05-01 13:46 48.91612 9.34374 28296 ft 480 kts 328°
2026-05-01 13:47 48.97406 9.29377 28299 ft 479 kts 335°
2026-05-01 13:47 49.03368 9.24866 28298 ft 479 kts 335°
2026-05-01 13:48 49.09330 9.20322 28305 ft 478 kts 334°
2026-05-01 13:48 49.15286 9.15775 28303 ft 478 kts 336°
2026-05-01 13:48 49.18404 9.14051 28302 ft 477 kts 347°
2026-05-01 13:49 49.21655 9.13337 28301 ft 465 kts 359°
2026-05-01 13:49 49.24804 9.13584 28246 ft 443 kts
2026-05-01 13:49 49.27818 9.14042 27923 ft 429 kts
2026-05-01 13:49 49.30750 9.14486 27493 ft 418 kts
2026-05-01 13:50 49.33614 9.14910 27090 ft 411 kts
2026-05-01 13:50 49.36425 9.15317 26695 ft 412 kts
2026-05-01 13:50 49.39290 9.15726 26289 ft 415 kts
2026-05-01 13:50 49.42164 9.16137 25898 ft 414 kts
2026-05-01 13:51 49.45020 9.16543 25506 ft 410 kts
2026-05-01 13:51 49.47852 9.16945 25119 ft 406 kts
2026-05-01 13:51 49.50656 9.17346 24736 ft 404 kts
2026-05-01 13:51 49.53451 9.17747 24368 ft 404 kts
2026-05-01 13:52 49.56257 9.17898 23994 ft 404 kts 356°
2026-05-01 13:52 49.58991 9.16947 23581 ft 405 kts 340°
2026-05-01 13:52 49.61458 9.14862 23135 ft 407 kts 323°
2026-05-01 13:52 49.63460 9.11789 22704 ft 409 kts 307°
2026-05-01 13:53 49.64872 9.07986 22217 ft 409 kts 296°
2026-05-01 13:53 49.67256 9.00042 21194 ft 406 kts 295°
2026-05-01 13:53 49.68446 8.96106 20692 ft 403 kts 295°
2026-05-01 13:54 49.69636 8.92203 20196 ft 400 kts 295°
2026-05-01 13:54 49.70820 8.88338 19643 ft 397 kts 295°
2026-05-01 13:54 49.71999 8.84492 19073 ft 395 kts 295°
2026-05-01 13:54 49.73171 8.80665 18500 ft 392 kts 295°
2026-05-01 13:55 49.74332 8.76866 17857 ft 389 kts 295°
2026-05-01 13:55 49.75480 8.73099 17229 ft 385 kts 295°
2026-05-01 13:55 49.76616 8.69366 16627 ft 382 kts 295°
2026-05-01 13:55 49.77741 8.65657 16023 ft 380 kts 295°
2026-05-01 13:56 49.78858 8.61970 15420 ft 377 kts 295°
2026-05-01 13:56 49.79966 8.58308 14838 ft 374 kts 295°
2026-05-01 13:56 49.81065 8.54669 14273 ft 372 kts 295°
2026-05-01 13:56 49.82157 8.51052 13661 ft 370 kts 295°
2026-05-01 13:57 49.83244 8.47446 13023 ft 368 kts 295°
2026-05-01 13:57 49.83958 8.45073 12625 ft 366 kts 294°
2026-05-01 13:57 49.85390 8.40316 11827 ft 363 kts 294°
2026-05-01 13:57 49.86452 8.36782 11236 ft 360 kts 294°
2026-05-01 13:58 49.87459 8.33242 10646 ft 357 kts 286°
2026-05-01 13:58 49.87796 8.29495 10082 ft 349 kts 264°
2026-05-01 13:58 49.87263 8.25878 9486 ft 342 kts 247°
2026-05-01 13:58 49.86427 8.22475 9064 ft 335 kts 246°
2026-05-01 13:59 49.85586 8.19140 8652 ft 328 kts 246°
2026-05-01 13:59 49.84768 8.15874 8246 ft 322 kts 246°
2026-05-01 13:59 49.83972 8.12673 7843 ft 314 kts 246°
2026-05-01 13:59 49.83212 8.09581 7462 ft 301 kts 246°
2026-05-01 14:00 49.82482 8.06607 7061 ft 290 kts 246°
2026-05-01 14:00 49.81780 8.03732 6668 ft 281 kts 246°
2026-05-01 14:00 49.81097 8.00937 6260 ft 274 kts 246°
2026-05-01 14:00 49.80424 7.98188 5873 ft 274 kts 246°
2026-05-01 14:01 49.79742 7.95422 5470 ft 274 kts 245°
2026-05-01 14:01 49.79064 7.92685 5076 ft 272 kts 246°
2026-05-01 14:01 49.78397 7.89932 4666 ft 275 kts 247°
2026-05-01 14:01 49.77792 7.87123 4294 ft 277 kts 252°
2026-05-01 14:02 49.77724 7.84141 4011 ft 279 kts 282°
2026-05-01 14:02 49.78541 7.81537 3985 ft 266 kts 312°
2026-05-01 14:02 49.79972 7.79945 3945 ft 248 kts 344°
2026-05-01 14:02 49.81569 7.79745 4014 ft 218 kts 17°
2026-05-01 14:03 49.82889 7.80737 3985 ft 212 kts 39°
2026-05-01 14:03 49.84068 7.82147 3972 ft 212 kts 44°
2026-05-01 14:03 49.85075 7.83826 3992 ft 215 kts 63°
2026-05-01 14:03 49.85739 7.85835 3962 ft 204 kts 67°
2026-05-01 14:04 49.86437 7.87760 3980 ft 207 kts 63°
2026-05-01 14:04 49.87074 7.89741 3970 ft 203 kts 74°
2026-05-01 14:04 49.87414 7.91122 3991 ft 205 kts 72°
2026-05-01 14:04 49.87976 7.93150 3977 ft 202 kts 70°
2026-05-01 14:05 49.88536 7.95164 3976 ft 206 kts 71°
2026-05-01 14:05 49.89091 7.97160 3988 ft 202 kts 68°
2026-05-01 14:05 49.89701 7.99127 3995 ft 205 kts 69°
2026-05-01 14:05 49.90266 8.01180 3969 ft 203 kts 72°
2026-05-01 14:06 49.90771 8.03215 3984 ft 203 kts 73°
2026-05-01 14:06 49.91263 8.05291 3990 ft 205 kts 72°
2026-05-01 14:06 49.91780 8.07374 3997 ft 205 kts 74°
2026-05-01 14:06 49.92250 8.09352 3989 ft 186 kts 73°
2026-05-01 14:07 49.92687 8.11182 3955 ft 174 kts 74°
2026-05-01 14:07 49.93082 8.12845 3983 ft 156 kts 75°
2026-05-01 14:07 49.93463 8.14455 3992 ft 164 kts 74°
2026-05-01 14:08 49.94263 8.17790 3955 ft 161 kts 75°
2026-05-01 14:08 49.94643 8.19400 3979 ft 164 kts 75°
2026-05-01 14:08 49.95040 8.21055 3980 ft 162 kts 74°
2026-05-01 14:08 49.95438 8.22721 3970 ft 165 kts 74°
2026-05-01 14:09 49.95829 8.24354 3998 ft 161 kts 74°
2026-05-01 14:09 49.96220 8.26005 3957 ft 163 kts 74°
2026-05-01 14:09 49.96615 8.27657 3775 ft 162 kts 73°
2026-05-01 14:09 49.97008 8.29295 3569 ft 162 kts 73°
2026-05-01 14:10 49.97402 8.30924 3381 ft 161 kts 73°
2026-05-01 14:10 49.97783 8.32542 3123 ft 156 kts 73°
2026-05-01 14:10 49.98167 8.34143 2912 ft 158 kts 73°
2026-05-01 14:10 49.98552 8.35753 2692 ft 158 kts 73°
2026-05-01 14:11 49.98923 8.37341 2514 ft 161 kts 73°
2026-05-01 14:11 49.99705 8.40581 2056 ft 152 kts 73°
2026-05-01 14:11 50.00054 8.42062 1864 ft 139 kts 73°
2026-05-01 14:12 50.00379 8.43424 1680 ft 130 kts 73°
2026-05-01 14:12 50.00691 8.44752 1523 ft 132 kts 72°
2026-05-01 14:12 50.01018 8.46103 1349 ft 133 kts 73°
2026-05-01 14:12 50.01334 8.47438 1129 ft 127 kts 73°
2026-05-01 14:13 50.01636 8.48671 1004 ft 122 kts 72°
2026-05-01 14:13 50.01939 8.49951 832 ft 130 kts 74°
2026-05-01 14:13 50.02249 8.51283 661 ft 128 kts 72°
2026-05-01 14:13 50.02561 8.52562 501 ft 126 kts 73°
2026-05-01 14:14 50.02870 8.53869 357 ft 127 kts 73°
2026-05-01 14:14 50.03133 8.55004 352 ft 85 kts 69°
2026-05-01 14:14 50.03257 8.55510 352 ft 38 kts 64°
2026-05-01 14:14 50.03354 8.55744 349 ft 21 kts 50°
2026-05-01 14:15 50.03464 8.55893 353 ft 21 kts 40°
2026-05-01 14:15 50.03572 8.56037 352 ft 20 kts 39°
2026-05-01 14:15 50.03658 8.56173 352 ft 14 kts 59°
2026-05-01 14:15 50.03692 8.56308 358 ft 15 kts 70°
2026-05-01 14:16 50.03730 8.56471 357 ft 17 kts 69°
2026-05-01 14:16 50.03776 8.56661 354 ft 20 kts 69°
2026-05-01 14:16 50.03829 8.56870 358 ft 21 kts 70°
2026-05-01 14:16 50.03879 8.57097 362 ft 22 kts 70°
2026-05-01 14:17 50.03931 8.57315 366 ft 21 kts 70°
2026-05-01 14:17 50.03981 8.57522 371 ft 19 kts 69°
2026-05-01 14:17 50.04024 8.57699 368 ft 16 kts 68°
2026-05-01 14:17 50.04076 8.57824 366 ft 9 kts 25°
2026-05-01 14:18 50.04113 8.57813 368 ft 0 kts 342°
2026-05-01 14:20 50.04206 8.57759 363 ft 14 kts 339°
2026-05-01 14:20 50.04309 8.57701 366 ft 16 kts 340°
2026-05-01 14:21 50.04394 8.57648 370 ft 13 kts 330°
2026-05-01 14:21 50.04419 8.57500 361 ft 18 kts 251°
2026-05-01 14:21 50.04370 8.57299 361 ft 20 kts 250°
2026-05-01 14:22 50.04279 8.56911 363 ft 15 kts 254°
2026-05-01 14:22 50.04339 8.56826 362 ft 15 kts
2026-05-01 14:22 50.04441 8.56854 361 ft 16 kts
2026-05-01 14:22 50.04489 8.56866 359 ft 5 kts
2026-05-01 14:23 50.04515 8.56841 359 ft 0 kts 296°
2026-05-01 14:23 50.04521 8.56822 359 ft 4 kts 295°
2026-05-01 14:23 50.04536 8.56769 363 ft 3 kts 294°
2026-05-01 14:23 50.04544 8.56742 362 ft 1 kts 294°
2026-05-01 14:24 50.04544 8.56741 362 ft 0 kts 294°